Total_Precipitation_Accumulation
0.80 0.68 0.79 0.80 0.67 0.75 1.09 1.03 0.96 0.69 0.64 0.73 0.72 0.74 0.71 0.65 0.57 0.51 0.50 0.48 0.45 0.47 0.50 0.53 0.56 0.63 0.77 0.90 0.96 1.08 1.23 1.27 1.27 1.26 1.26 1.23 1.23 1.20 1.20 1.25 1.33 1.42 1.42 1.35
0.84 0.52 0.55 0.60 0.51 0.58 0.71 0.67 0.67 0.55 0.64 0.60 0.58 0.61 0.64 0.59 0.51 0.45 0.46 0.45 0.40 0.39 0.40 0.43 0.48 0.53 0.63 0.80 0.91 0.98 1.10 1.18 1.21 1.21 1.21 1.21 1.17 1.14 1.10 1.13 1.22 1.33 1.39 1.42
1.01 0.54 0.64 0.73 0.59 0.58 0.66 0.63 0.62 0.70 0.67 0.49 0.49 0.57 0.68 0.63 0.51 0.47 0.46 0.45 0.43 0.42 0.40 0.40 0.42 0.51 0.62 0.74 0.82 0.87 0.93 1.01 1.07 1.09 1.13 1.15 1.15 1.17 1.21 1.22 1.26 1.35 1.43 1.49
1.18 0.87 1.04 0.76 0.50 0.49 0.57 0.62 0.58 0.60 0.52 0.46 0.51 0.56 0.61 0.62 0.57 0.50 0.43 0.42 0.42 0.44 0.42 0.40 0.41 0.48 0.60 0.74 0.85 0.92 0.98 1.00 0.99 1.04 1.09 1.15 1.23 1.31 1.39 1.44 1.45 1.51 1.57 1.59
1.28 0.97 0.62 0.39 0.31 0.44 0.57 0.64 0.54 0.48 0.41 0.36 0.39 0.47 0.52 0.50 0.52 0.52 0.47 0.45 0.47 0.49 0.49 0.47 0.48 0.50 0.59 0.74 0.86 0.94 1.02 1.07 1.07 1.12 1.22 1.27 1.39 1.47 1.50 1.58 1.56 1.52 1.50 1.50
1.36 1.10 0.60 0.40 0.21 0.25 0.45 0.67 0.42 0.37 0.38 0.35 0.35 0.48 0.52 0.48 0.51 0.53 0.49 0.48 0.50 0.51 0.50 0.53 0.57 0.60 0.69 0.84 0.94 1.03 1.12 1.21 1.21 1.22 1.29 1.33 1.37 1.37 1.36 1.37 1.34 1.27 1.23 1.19
1.10 1.05 0.56 0.37 0.18 0.18 0.54 0.69 0.42 0.41 0.43 0.41 0.47 0.55 0.50 0.45 0.48 0.52 0.55 0.58 0.60 0.60 0.63 0.70 0.75 0.80 0.91 1.04 1.17 1.22 1.25 1.31 1.29 1.24 1.24 1.21 1.18 1.13 1.08 1.06 1.03 0.99 0.96 0.92
0.79 1.10 0.73 0.37 0.26 0.49 0.69 0.47 0.41 0.39 0.40 0.40 0.39 0.36 0.36 0.37 0.41 0.45 0.49 0.55 0.61 0.68 0.72 0.76 0.85 0.94 1.05 1.19 1.27 1.21 1.16 1.15 1.11 1.01 0.98 0.93 0.91 0.93 0.92 0.90 0.94 0.95 0.91 0.88
0.75 0.82 0.68 0.52 0.54 0.57 0.50 0.46 0.40 0.41 0.39 0.37 0.37 0.36 0.36 0.36 0.37 0.39 0.41 0.44 0.50 0.58 0.65 0.68 0.76 0.80 0.89 0.94 0.92 0.91 0.90 0.91 0.90 0.87 0.84 0.84 0.82 0.85 0.90 0.89 0.89 0.90 0.89 0.91
0.65 0.63 0.53 0.49 0.45 0.42 0.40 0.42 0.39 0.37 0.35 0.33 0.37 0.34 0.33 0.33 0.35 0.36 0.38 0.40 0.42 0.45 0.50 0.57 0.62 0.66 0.69 0.69 0.69 0.73 0.80 0.84 0.86 0.86 0.84 0.84 0.86 0.84 0.88 0.91 0.92 0.90 0.88 0.91
0.57 0.47 0.41 0.38 0.35 0.38 0.35 0.31 0.31 0.30 0.29 0.31 0.32 0.31 0.33 0.34 0.36 0.37 0.38 0.40 0.41 0.48 0.53 0.61 0.61 0.65 0.68 0.71 0.71 0.76 0.81 0.87 0.90 0.92 0.88 0.88 0.88 0.90 0.92 0.94 1.01 1.11 1.07 1.01
0.64 0.47 0.49 0.45 0.36 0.33 0.32 0.32 0.34 0.34 0.33 0.32 0.34 0.38 0.37 0.39 0.41 0.42 0.42 0.41 0.42 0.45 0.52 0.60 0.60 0.62 0.68 0.74 0.78 0.82 0.84 0.87 0.89 0.92 0.92 0.90 0.86 0.90 0.95 0.97 1.00 1.02 1.03 1.05
0.52 0.38 0.37 0.35 0.29 0.28 0.32 0.35 0.37 0.36 0.36 0.37 0.37 0.39 0.41 0.44 0.46 0.46 0.46 0.45 0.48 0.51 0.53 0.58 0.60 0.62 0.69 0.73 0.77 0.83 0.88 0.90 0.91 0.92 0.92 0.92 0.88 0.85 0.92 0.97 0.99 0.99 0.98 0.99
0.32 0.30 0.32 0.29 0.32 0.32 0.33 0.35 0.34 0.35 0.36 0.38 0.40 0.41 0.42 0.44 0.45 0.46 0.52 0.55 0.55 0.52 0.51 0.52 0.51 0.58 0.66 0.68 0.71 0.78 0.82 0.88 0.91 0.91 0.94 0.97 0.96 0.91 0.87 0.88 0.91 0.92 0.93 0.99
0.27 0.31 0.38 0.35 0.32 0.32 0.31 0.30 0.30 0.32 0.33 0.35 0.37 0.41 0.43 0.46 0.49 0.52 0.54 0.54 0.49 0.47 0.47 0.46 0.47 0.54 0.59 0.62 0.66 0.72 0.78 0.86 0.90 0.91 0.94 0.99 1.01 1.02 0.97 0.91 0.88 0.88 0.88 0.95
0.30 0.30 0.31 0.33 0.34 0.33 0.32 0.32 0.34 0.37 0.37 0.37 0.40 0.44 0.47 0.48 0.48 0.49 0.51 0.50 0.49 0.50 0.50 0.48 0.50 0.53 0.54 0.57 0.61 0.65 0.75 0.89 0.96 0.96 0.98 1.00 1.01 1.01 1.01 0.96 0.92 0.87 0.85 0.93
0.44 0.42 0.39 0.39 0.39 0.38 0.40 0.42 0.44 0.44 0.42 0.41 0.43 0.44 0.43 0.41 0.40 0.43 0.46 0.47 0.47 0.49 0.49 0.50 0.53 0.51 0.50 0.53 0.59 0.64 0.69 0.79 0.88 0.88 0.89 0.96 1.01 1.02 1.04 1.03 0.97 0.90 0.88 0.97
0.53 0.55 0.52 0.51 0.49 0.47 0.46 0.44 0.44 0.44 0.44 0.45 0.43 0.42 0.42 0.41 0.42 0.44 0.45 0.42 0.40 0.41 0.45 0.50 0.52 0.47 0.44 0.48 0.54 0.59 0.64 0.69 0.75 0.81 0.85 0.93 1.03 1.03 1.02 1.02 0.97 0.92 0.89 0.94
0.49 0.51 0.51 0.51 0.51 0.50 0.49 0.50 0.49 0.47 0.46 0.44 0.42 0.44 0.44 0.45 0.46 0.47 0.44 0.41 0.40 0.43 0.47 0.48 0.50 0.46 0.45 0.49 0.55 0.58 0.61 0.65 0.69 0.73 0.80 0.89 0.93 0.91 0.92 0.94 0.94 0.90 0.89 0.90
0.48 0.49 0.49 0.50 0.49 0.48 0.50 0.50 0.47 0.46 0.45 0.44 0.43 0.44 0.45 0.46 0.45 0.45 0.41 0.41 0.48 0.53 0.49 0.49 0.47 0.44 0.46 0.50 0.58 0.59 0.60 0.64 0.68 0.71 0.76 0.82 0.85 0.84 0.84 0.85 0.85 0.85 0.86 0.87
0.50 0.49 0.48 0.50 0.51 0.50 0.49 0.47 0.45 0.47 0.48 0.45 0.45 0.46 0.47 0.46 0.43 0.40 0.38 0.40 0.43 0.44 0.44 0.44 0.42 0.43 0.50 0.62 0.66 0.61 0.60 0.64 0.69 0.74 0.78 0.80 0.82 0.82 0.80 0.80 0.80 0.81 0.82 0.84
0.48 0.49 0.50 0.49 0.46 0.47 0.48 0.46 0.46 0.46 0.46 0.47 0.47 0.45 0.44 0.43 0.40 0.38 0.38 0.43 0.45 0.47 0.46 0.42 0.45 0.55 0.72 0.78 0.68 0.61 0.63 0.66 0.69 0.74 0.77 0.78 0.80 0.79 0.76 0.76 0.79 0.78 0.77 0.78
0.44 0.46 0.47 0.48 0.47 0.46 0.45 0.45 0.45 0.44 0.45 0.46 0.48 0.48 0.46 0.45 0.42 0.42 0.46 0.43 0.43 0.47 0.47 0.48 0.57 0.71 0.79 0.72 0.60 0.59 0.62 0.65 0.67 0.69 0.72 0.73 0.73 0.73 0.73 0.72 0.71 0.72 0.73 0.73
0.36 0.36 0.38 0.38 0.35 0.33 0.36 0.38 0.38 0.39 0.40 0.42 0.43 0.44 0.44 0.42 0.40 0.40 0.45 0.46 0.47 0.48 0.47 0.51 0.60 0.68 0.67 0.58 0.53 0.55 0.57 0.59 0.61 0.62 0.63 0.64 0.63 0.64 0.65 0.66 0.66 0.64 0.64 0.65
0.29 0.28 0.26 0.26 0.26 0.28 0.30 0.30 0.29 0.30 0.30 0.34 0.36 0.36 0.37 0.40 0.44 0.44 0.41 0.42 0.43 0.43 0.42 0.45 0.49 0.50 0.49 0.47 0.48 0.50 0.52 0.56 0.61 0.64 0.62 0.60 0.60 0.60 0.59 0.58 0.60 0.59 0.59 0.60
0.24 0.23 0.23 0.23 0.24 0.25 0.24 0.24 0.25 0.27 0.28 0.30 0.33 0.34 0.36 0.39 0.40 0.42 0.41 0.40 0.39 0.40 0.40 0.40 0.40 0.41 0.42 0.42 0.44 0.45 0.47 0.49 0.51 0.53 0.53 0.54 0.55 0.56 0.55 0.55 0.54 0.55 0.56 0.57
0.21 0.21 0.20 0.19 0.19 0.21 0.23 0.23 0.25 0.27 0.30 0.33 0.37 0.36 0.37 0.38 0.39 0.39 0.38 0.37 0.37 0.37 0.38 0.38 0.39 0.39 0.40 0.41 0.41 0.41 0.42 0.44 0.46 0.48 0.49 0.50 0.52 0.53 0.53 0.53 0.53 0.54 0.55 0.54